owner,sensor,date,latitude,longitude,vertical_datum,sea_water_practical_salinity,qcFlag 
ENP,ioos.station.NOAA.NDBC:LMDF1:1,2016-08-01T00:00:00Z,25.1760,-80.6330,1.5,23.56,1111122 
ENP,ioos.station.NOAA.NDBC:LMDF1:1,2016-08-01T01:00:00Z,25.1760,-80.6330,1.5,23.54,1111122 
ENP,ioos.station.NOAA.NDBC:LMDF1:1,2016-08-01T02:00:00Z,25.1760,-80.6330,1.5,21.93,1111122 
ENP,ioos.station.NOAA.NDBC:LMDF1:1,2016-08-01T04:00:00Z,25.1760,-80.6330,1.5,23.96,1111122 
ENP,ioos.station.NOAA.NDBC:LMDF1:1,2016-08-01T07:00:00Z,25.1760,-80.6330,1.5,22.56,1111122 
ENP,ioos.station.NOAA.NDBC:LMDF1:1,2016-08-01T08:00:00Z,25.1760,-80.6330,1.5,23.71,1111122 
ENP,ioos.station.NOAA.NDBC:LMDF1:1,2016-08-01T09:00:00Z,25.1760,-80.6330,1.5,23.53,1111122 
ENP,ioos.station.NOAA.NDBC:LMDF1:1,2016-08-01T10:00:00Z,25.1760,-80.6330,1.5,21.2,1111122 
ENP,ioos.station.NOAA.NDBC:LMDF1:1,2016-08-01T11:00:00Z,25.1760,-80.6330,1.5,19.86,1111122 
ENP,ioos.station.NOAA.NDBC:LMDF1:1,2016-08-01T12:00:00Z,25.1760,-80.6330,1.5,23.33,1111122 
ENP,ioos.station.NOAA.NDBC:LMDF1:1,2016-08-01T13:00:00Z,25.1760,-80.6330,1.5,20.81,1111122 
ENP,ioos.station.NOAA.NDBC:LMDF1:1,2016-08-01T14:00:00Z,25.1760,-80.6330,1.5,23.23,1111122 
ENP,ioos.station.NOAA.NDBC:LMDF1:1,2016-08-01T15:00:00Z,25.1760,-80.6330,1.5,23.14,1111122 
ENP,ioos.station.NOAA.NDBC:LMDF1:1,2016-08-01T16:00:00Z,25.1760,-80.6330,1.5,23.67,1111122 
ENP,ioos.station.NOAA.NDBC:LMDF1:1,2016-08-01T17:00:00Z,25.1760,-80.6330,1.5,23.42,1111122 
ENP,ioos.station.NOAA.NDBC:LMDF1:1,2016-08-01T18:00:00Z,25.1760,-80.6330,1.5,20.83,1111122 
ENP,ioos.station.NOAA.NDBC:LMDF1:1,2016-08-01T20:00:00Z,25.1760,-80.6330,1.5,22.32,1111122 
ENP,ioos.station.NOAA.NDBC:LMDF1:1,2016-08-01T21:00:00Z,25.1760,-80.6330,1.5,23.23,1111122 
ENP,ioos.station.NOAA.NDBC:LMDF1:1,2016-08-01T22:00:00Z,25.1760,-80.6330,1.5,23.45,1111122 
ENP,ioos.station.NOAA.NDBC:LMDF1:1,2016-08-01T23:00:00Z,25.1760,-80.6330,1.5,22.4,1111122 
ENP,ioos.station.NOAA.NDBC:LMDF1:1,2016-08-02T00:00:00Z,25.1760,-80.6330,1.5,20.58,1111122 
ENP,ioos.station.NOAA.NDBC:LMDF1:1,2016-08-02T01:00:00Z,25.1760,-80.6330,1.5,17.37,1111122 
ENP,ioos.station.NOAA.NDBC:LMDF1:1,2016-08-02T04:00:00Z,25.1760,-80.6330,1.5,22.19,1111122 
ENP,ioos.station.NOAA.NDBC:LMDF1:1,2016-08-02T07:00:00Z,25.1760,-80.6330,1.5,22.04,1111122 
ENP,ioos.station.NOAA.NDBC:LMDF1:1,2016-08-02T08:00:00Z,25.1760,-80.6330,1.5,22.47,1111122 
ENP,ioos.station.NOAA.NDBC:LMDF1:1,2016-08-02T09:00:00Z,25.1760,-80.6330,1.5,22.54,1111122 
ENP,ioos.station.NOAA.NDBC:LMDF1:1,2016-08-02T11:00:00Z,25.1760,-80.6330,1.5,22.62,1111122 
ENP,ioos.station.NOAA.NDBC:LMDF1:1,2016-08-02T13:00:00Z,25.1760,-80.6330,1.5,21.7,1111122 
ENP,ioos.station.NOAA.NDBC:LMDF1:1,2016-08-02T14:00:00Z,25.1760,-80.6330,1.5,22.4,1111122 
ENP,ioos.station.NOAA.NDBC:LMDF1:1,2016-08-02T15:00:00Z,25.1760,-80.6330,1.5,22.8,1111122 
ENP,ioos.station.NOAA.NDBC:LMDF1:1,2016-08-02T16:00:00Z,25.1760,-80.6330,1.5,23.1,1111122 
ENP,ioos.station.NOAA.NDBC:LMDF1:1,2016-08-02T17:00:00Z,25.1760,-80.6330,1.5,22.95,1111122 
ENP,ioos.station.NOAA.NDBC:LMDF1:1,2016-08-02T19:00:00Z,25.1760,-80.6330,1.5,23.53,1111122 
ENP,ioos.station.NOAA.NDBC:LMDF1:1,2016-08-02T20:00:00Z,25.1760,-80.6330,1.5,23.6,1111122 
ENP,ioos.station.NOAA.NDBC:LMDF1:1,2016-08-02T21:00:00Z,25.1760,-80.6330,1.5,23.51,1111122 
ENP,ioos.station.NOAA.NDBC:LMDF1:1,2016-08-02T22:00:00Z,25.1760,-80.6330,1.5,24.41,1111122 
ENP,ioos.station.NOAA.NDBC:LMDF1:1,2016-08-02T23:00:00Z,25.1760,-80.6330,1.5,20.17,1111122 
ENP,ioos.station.NOAA.NDBC:LMDF1:1,2016-08-03T00:00:00Z,25.1760,-80.6330,1.5,16.18,1111122 
ENP,ioos.station.NOAA.NDBC:LMDF1:1,2016-08-03T01:00:00Z,25.1760,-80.6330,1.5,16.14,1111122 
ENP,ioos.station.NOAA.NDBC:LMDF1:1,2016-08-03T04:00:00Z,25.1760,-80.6330,1.5,21.16,1111122 
ENP,ioos.station.NOAA.NDBC:LMDF1:1,2016-08-03T07:00:00Z,25.1760,-80.6330,1.5,20.63,1111122 
ENP,ioos.station.NOAA.NDBC:LMDF1:1,2016-08-03T08:00:00Z,25.1760,-80.6330,1.5,19.42,1111122 
ENP,ioos.station.NOAA.NDBC:LMDF1:1,2016-08-03T09:00:00Z,25.1760,-80.6330,1.5,20.83,1111122 
ENP,ioos.station.NOAA.NDBC:LMDF1:1,2016-08-03T11:00:00Z,25.1760,-80.6330,1.5,20.94,1111122 
ENP,ioos.station.NOAA.NDBC:LMDF1:1,2016-08-03T12:00:00Z,25.1760,-80.6330,1.5,18.17,1111122 
ENP,ioos.station.NOAA.NDBC:LMDF1:1,2016-08-03T14:00:00Z,25.1760,-80.6330,1.5,20.59,1111122 
ENP,ioos.station.NOAA.NDBC:LMDF1:1,2016-08-03T15:00:00Z,25.1760,-80.6330,1.5,19.73,1111122 
ENP,ioos.station.NOAA.NDBC:LMDF1:1,2016-08-03T16:00:00Z,25.1760,-80.6330,1.5,18.42,1111122 
ENP,ioos.station.NOAA.NDBC:LMDF1:1,2016-08-03T17:00:00Z,25.1760,-80.6330,1.5,20.24,1111122 
ENP,ioos.station.NOAA.NDBC:LMDF1:1,2016-08-03T18:00:00Z,25.1760,-80.6330,1.5,20.92,1111122 
ENP,ioos.station.NOAA.NDBC:LMDF1:1,2016-08-03T19:00:00Z,25.1760,-80.6330,1.5,21.17,1111122 
ENP,ioos.station.NOAA.NDBC:LMDF1:1,2016-08-05T20:00:00Z,25.1760,-80.6330,1.5,22.86,1111122 
ENP,ioos.station.NOAA.NDBC:LMDF1:1,2016-08-05T21:00:00Z,25.1760,-80.6330,1.5,23.11,1111122 
ENP,ioos.station.NOAA.NDBC:LMDF1:1,2016-08-05T22:00:00Z,25.1760,-80.6330,1.5,23.24,1111122 
ENP,ioos.station.NOAA.NDBC:LMDF1:1,2016-08-05T23:00:00Z,25.1760,-80.6330,1.5,23.26,1111122 
ENP,ioos.station.NOAA.NDBC:LMDF1:1,2016-08-06T00:00:00Z,25.1760,-80.6330,1.5,23.09,1111122 
ENP,ioos.station.NOAA.NDBC:LMDF1:1,2016-08-06T19:00:00Z,25.1760,-80.6330,1.5,23.07,1111122 
ENP,ioos.station.NOAA.NDBC:LMDF1:1,2016-08-06T20:00:00Z,25.1760,-80.6330,1.5,22.27,1111122 
ENP,ioos.station.NOAA.NDBC:LMDF1:1,2016-08-06T21:00:00Z,25.1760,-80.6330,1.5,21.82,1111122 
ENP,ioos.station.NOAA.NDBC:LMDF1:1,2016-08-06T22:00:00Z,25.1760,-80.6330,1.5,21.58,1111122 
ENP,ioos.station.NOAA.NDBC:LMDF1:1,2016-08-06T23:00:00Z,25.1760,-80.6330,1.5,21.61,1111122 
ENP,ioos.station.NOAA.NDBC:LMDF1:1,2016-08-07T00:00:00Z,25.1760,-80.6330,1.5,22.52,1111122 
ENP,ioos.station.NOAA.NDBC:LMDF1:1,2016-08-07T01:00:00Z,25.1760,-80.6330,1.5,22.55,1111122 
ENP,ioos.station.NOAA.NDBC:LMDF1:1,2016-08-07T02:00:00Z,25.1760,-80.6330,1.5,21.64,1111122 
ENP,ioos.station.NOAA.NDBC:LMDF1:1,2016-08-07T07:00:00Z,25.1760,-80.6330,1.5,22.31,1111122 
ENP,ioos.station.NOAA.NDBC:LMDF1:1,2016-08-07T08:00:00Z,25.1760,-80.6330,1.5,21.86,1111122 
ENP,ioos.station.NOAA.NDBC:LMDF1:1,2016-08-07T09:00:00Z,25.1760,-80.6330,1.5,21.88,1111122 
ENP,ioos.station.NOAA.NDBC:LMDF1:1,2016-08-07T10:00:00Z,25.1760,-80.6330,1.5,21.72,1111122 
ENP,ioos.station.NOAA.NDBC:LMDF1:1,2016-08-07T12:00:00Z,25.1760,-80.6330,1.5,21.58,1111122 
ENP,ioos.station.NOAA.NDBC:LMDF1:1,2016-08-07T13:00:00Z,25.1760,-80.6330,1.5,21.33,1111122 
ENP,ioos.station.NOAA.NDBC:LMDF1:1,2016-08-07T14:00:00Z,25.1760,-80.6330,1.5,21.54,1111122 
ENP,ioos.station.NOAA.NDBC:LMDF1:1,2016-08-07T15:00:00Z,25.1760,-80.6330,1.5,21.53,1111122 
ENP,ioos.station.NOAA.NDBC:LMDF1:1,2016-08-07T16:00:00Z,25.1760,-80.6330,1.5,21.41,1111122 
ENP,ioos.station.NOAA.NDBC:LMDF1:1,2016-08-07T17:00:00Z,25.1760,-80.6330,1.5,21.53,1111122 
ENP,ioos.station.NOAA.NDBC:LMDF1:1,2016-08-07T18:00:00Z,25.1760,-80.6330,1.5,21.65,1111122 
ENP,ioos.station.NOAA.NDBC:LMDF1:1,2016-08-07T19:00:00Z,25.1760,-80.6330,1.5,21.69,1111122 
ENP,ioos.station.NOAA.NDBC:LMDF1:1,2016-08-07T20:00:00Z,25.1760,-80.6330,1.5,21.88,1111122 
ENP,ioos.station.NOAA.NDBC:LMDF1:1,2016-08-07T21:00:00Z,25.1760,-80.6330,1.5,22.16,1111122 
ENP,ioos.station.NOAA.NDBC:LMDF1:1,2016-08-07T22:00:00Z,25.1760,-80.6330,1.5,22.12,1111122 
ENP,ioos.station.NOAA.NDBC:LMDF1:1,2016-08-07T23:00:00Z,25.1760,-80.6330,1.5,22.12,1111122 
ENP,ioos.station.NOAA.NDBC:LMDF1:1,2016-08-08T00:00:00Z,25.1760,-80.6330,1.5,21.8,1111122 
ENP,ioos.station.NOAA.NDBC:LMDF1:1,2016-08-08T01:00:00Z,25.1760,-80.6330,1.5,21.81,1111122 
ENP,ioos.station.NOAA.NDBC:LMDF1:1,2016-08-08T04:00:00Z,25.1760,-80.6330,1.5,21.09,1111122 
ENP,ioos.station.NOAA.NDBC:LMDF1:1,2016-08-08T05:00:00Z,25.1760,-80.6330,1.5,21.41,1111122 
ENP,ioos.station.NOAA.NDBC:LMDF1:1,2016-08-08T07:00:00Z,25.1760,-80.6330,1.5,22.06,1111122 
ENP,ioos.station.NOAA.NDBC:LMDF1:1,2016-08-08T08:00:00Z,25.1760,-80.6330,1.5,21.74,1111122 
ENP,ioos.station.NOAA.NDBC:LMDF1:1,2016-08-08T09:00:00Z,25.1760,-80.6330,1.5,21.79,1111122 
ENP,ioos.station.NOAA.NDBC:LMDF1:1,2016-08-08T11:00:00Z,25.1760,-80.6330,1.5,21.31,1111122 
ENP,ioos.station.NOAA.NDBC:LMDF1:1,2016-08-08T12:00:00Z,25.1760,-80.6330,1.5,21.14,1111122 
ENP,ioos.station.NOAA.NDBC:LMDF1:1,2016-08-08T13:00:00Z,25.1760,-80.6330,1.5,21.71,1111122 
ENP,ioos.station.NOAA.NDBC:LMDF1:1,2016-08-08T14:00:00Z,25.1760,-80.6330,1.5,20.94,1111122 
ENP,ioos.station.NOAA.NDBC:LMDF1:1,2016-08-08T15:00:00Z,25.1760,-80.6330,1.5,21.32,1111122 
ENP,ioos.station.NOAA.NDBC:LMDF1:1,2016-08-08T16:00:00Z,25.1760,-80.6330,1.5,20.63,1111122 
ENP,ioos.station.NOAA.NDBC:LMDF1:1,2016-08-08T17:00:00Z,25.1760,-80.6330,1.5,21.08,1111122 
ENP,ioos.station.NOAA.NDBC:LMDF1:1,2016-08-08T18:00:00Z,25.1760,-80.6330,1.5,21.36,1111122 
ENP,ioos.station.NOAA.NDBC:LMDF1:1,2016-08-08T19:00:00Z,25.1760,-80.6330,1.5,21.44,1111122 
ENP,ioos.station.NOAA.NDBC:LMDF1:1,2016-08-08T20:00:00Z,25.1760,-80.6330,1.5,20.65,1111122 
ENP,ioos.station.NOAA.NDBC:LMDF1:1,2016-08-08T21:00:00Z,25.1760,-80.6330,1.5,20.95,1111122 
ENP,ioos.station.NOAA.NDBC:LMDF1:1,2016-08-08T22:00:00Z,25.1760,-80.6330,1.5,20.5,1111122 
ENP,ioos.station.NOAA.NDBC:LMDF1:1,2016-08-08T23:00:00Z,25.1760,-80.6330,1.5,18.52,1111122 
ENP,ioos.station.NOAA.NDBC:LMDF1:1,2016-08-09T00:00:00Z,25.1760,-80.6330,1.5,17.71,1111122 
ENP,ioos.station.NOAA.NDBC:LMDF1:1,2016-08-09T01:00:00Z,25.1760,-80.6330,1.5,20.2,1111122 
ENP,ioos.station.NOAA.NDBC:LMDF1:1,2016-08-09T04:00:00Z,25.1760,-80.6330,1.5,19.9,1111122 
ENP,ioos.station.NOAA.NDBC:LMDF1:1,2016-08-09T05:00:00Z,25.1760,-80.6330,1.5,20.15,1111122 
ENP,ioos.station.NOAA.NDBC:LMDF1:1,2016-08-09T07:00:00Z,25.1760,-80.6330,1.5,20.31,1111122 
ENP,ioos.station.NOAA.NDBC:LMDF1:1,2016-08-09T08:00:00Z,25.1760,-80.6330,1.5,20.39,1111122 
ENP,ioos.station.NOAA.NDBC:LMDF1:1,2016-08-09T09:00:00Z,25.1760,-80.6330,1.5,20.41,1111122 
ENP,ioos.station.NOAA.NDBC:LMDF1:1,2016-08-09T11:00:00Z,25.1760,-80.6330,1.5,20.71,1111122 
ENP,ioos.station.NOAA.NDBC:LMDF1:1,2016-08-09T12:00:00Z,25.1760,-80.6330,1.5,20.8,1111122 
ENP,ioos.station.NOAA.NDBC:LMDF1:1,2016-08-09T13:00:00Z,25.1760,-80.6330,1.5,19.32,1111122 
ENP,ioos.station.NOAA.NDBC:LMDF1:1,2016-08-09T14:00:00Z,25.1760,-80.6330,1.5,19.47,1111122 
ENP,ioos.station.NOAA.NDBC:LMDF1:1,2016-08-09T15:00:00Z,25.1760,-80.6330,1.5,20.15,1111122 
ENP,ioos.station.NOAA.NDBC:LMDF1:1,2016-08-09T16:00:00Z,25.1760,-80.6330,1.5,19.82,1111122 
ENP,ioos.station.NOAA.NDBC:LMDF1:1,2016-08-09T17:00:00Z,25.1760,-80.6330,1.5,19.95,1111122 
ENP,ioos.station.NOAA.NDBC:LMDF1:1,2016-08-09T18:00:00Z,25.1760,-80.6330,1.5,20.12,1111122 
ENP,ioos.station.NOAA.NDBC:LMDF1:1,2016-08-09T19:00:00Z,25.1760,-80.6330,1.5,20.26,1111122 
ENP,ioos.station.NOAA.NDBC:LMDF1:1,2016-08-09T20:00:00Z,25.1760,-80.6330,1.5,20.38,1111122 
ENP,ioos.station.NOAA.NDBC:LMDF1:1,2016-08-09T21:00:00Z,25.1760,-80.6330,1.5,20.52,1111122 
ENP,ioos.station.NOAA.NDBC:LMDF1:1,2016-08-09T22:00:00Z,25.1760,-80.6330,1.5,20.78,1111122 
ENP,ioos.station.NOAA.NDBC:LMDF1:1,2016-08-09T23:00:00Z,25.1760,-80.6330,1.5,20.66,1111122 
ENP,ioos.station.NOAA.NDBC:LMDF1:1,2016-08-10T00:00:00Z,25.1760,-80.6330,1.5,20.67,1111122 
ENP,ioos.station.NOAA.NDBC:LMDF1:1,2016-08-10T01:00:00Z,25.1760,-80.6330,1.5,20.78,1111122 
ENP,ioos.station.NOAA.NDBC:LMDF1:1,2016-08-10T04:00:00Z,25.1760,-80.6330,1.5,21.23,1111122 
ENP,ioos.station.NOAA.NDBC:LMDF1:1,2016-08-10T05:00:00Z,25.1760,-80.6330,1.5,19.92,1111122 
ENP,ioos.station.NOAA.NDBC:LMDF1:1,2016-08-10T07:00:00Z,25.1760,-80.6330,1.5,20.13,1111122 
ENP,ioos.station.NOAA.NDBC:LMDF1:1,2016-08-10T08:00:00Z,25.1760,-80.6330,1.5,20.7,1111122 
ENP,ioos.station.NOAA.NDBC:LMDF1:1,2016-08-10T09:00:00Z,25.1760,-80.6330,1.5,20.96,1111122 
ENP,ioos.station.NOAA.NDBC:LMDF1:1,2016-08-10T10:00:00Z,25.1760,-80.6330,1.5,21.45,1111122 
ENP,ioos.station.NOAA.NDBC:LMDF1:1,2016-08-10T11:00:00Z,25.1760,-80.6330,1.5,21.98,1111122 
ENP,ioos.station.NOAA.NDBC:LMDF1:1,2016-08-10T12:00:00Z,25.1760,-80.6330,1.5,22.34,1111122 
ENP,ioos.station.NOAA.NDBC:LMDF1:1,2016-08-10T13:00:00Z,25.1760,-80.6330,1.5,21.99,1111122 
ENP,ioos.station.NOAA.NDBC:LMDF1:1,2016-08-10T14:00:00Z,25.1760,-80.6330,1.5,22.11,1111122 
ENP,ioos.station.NOAA.NDBC:LMDF1:1,2016-08-10T15:00:00Z,25.1760,-80.6330,1.5,22.2,1111122 
ENP,ioos.station.NOAA.NDBC:LMDF1:1,2016-08-10T16:00:00Z,25.1760,-80.6330,1.5,22.47,1111122 
ENP,ioos.station.NOAA.NDBC:LMDF1:1,2016-08-10T17:00:00Z,25.1760,-80.6330,1.5,22.8,1111122 
ENP,ioos.station.NOAA.NDBC:LMDF1:1,2016-08-10T18:00:00Z,25.1760,-80.6330,1.5,23.01,1111122 
ENP,ioos.station.NOAA.NDBC:LMDF1:1,2016-08-10T19:00:00Z,25.1760,-80.6330,1.5,22.94,1111122 
ENP,ioos.station.NOAA.NDBC:LMDF1:1,2016-08-10T20:00:00Z,25.1760,-80.6330,1.5,22.92,1111122 
ENP,ioos.station.NOAA.NDBC:LMDF1:1,2016-08-10T21:00:00Z,25.1760,-80.6330,1.5,18.98,1111122 
ENP,ioos.station.NOAA.NDBC:LMDF1:1,2016-08-10T22:00:00Z,25.1760,-80.6330,1.5,18.3,1111122 
ENP,ioos.station.NOAA.NDBC:LMDF1:1,2016-08-10T23:00:00Z,25.1760,-80.6330,1.5,19.53,1111122 
ENP,ioos.station.NOAA.NDBC:LMDF1:1,2016-08-11T00:00:00Z,25.1760,-80.6330,1.5,20.76,1111122 
ENP,ioos.station.NOAA.NDBC:LMDF1:1,2016-08-11T01:00:00Z,25.1760,-80.6330,1.5,21.5,1111122 
ENP,ioos.station.NOAA.NDBC:LMDF1:1,2016-08-11T04:00:00Z,25.1760,-80.6330,1.5,21.95,1111122 
ENP,ioos.station.NOAA.NDBC:LMDF1:1,2016-08-11T07:00:00Z,25.1760,-80.6330,1.5,22.43,1111122 
ENP,ioos.station.NOAA.NDBC:LMDF1:1,2016-08-11T08:00:00Z,25.1760,-80.6330,1.5,19.07,1111122 
ENP,ioos.station.NOAA.NDBC:LMDF1:1,2016-08-11T09:00:00Z,25.1760,-80.6330,1.5,21.18,1111122 
ENP,ioos.station.NOAA.NDBC:LMDF1:1,2016-08-11T10:00:00Z,25.1760,-80.6330,1.5,21.63,1111122 
ENP,ioos.station.NOAA.NDBC:LMDF1:1,2016-08-11T11:00:00Z,25.1760,-80.6330,1.5,21.8,1111122 
ENP,ioos.station.NOAA.NDBC:LMDF1:1,2016-08-11T12:00:00Z,25.1760,-80.6330,1.5,21.97,1111122 
ENP,ioos.station.NOAA.NDBC:LMDF1:1,2016-08-11T13:00:00Z,25.1760,-80.6330,1.5,21.86,1111122 
ENP,ioos.station.NOAA.NDBC:LMDF1:1,2016-08-11T14:00:00Z,25.1760,-80.6330,1.5,21.93,1111122 
ENP,ioos.station.NOAA.NDBC:LMDF1:1,2016-08-11T15:00:00Z,25.1760,-80.6330,1.5,21.81,1111122 
ENP,ioos.station.NOAA.NDBC:LMDF1:1,2016-08-11T16:00:00Z,25.1760,-80.6330,1.5,21.88,1111122 
ENP,ioos.station.NOAA.NDBC:LMDF1:1,2016-08-11T17:00:00Z,25.1760,-80.6330,1.5,19.71,1111122 
ENP,ioos.station.NOAA.NDBC:LMDF1:1,2016-08-11T18:00:00Z,25.1760,-80.6330,1.5,18.33,1111122 
ENP,ioos.station.NOAA.NDBC:LMDF1:1,2016-08-11T19:00:00Z,25.1760,-80.6330,1.5,19.56,1111122 
ENP,ioos.station.NOAA.NDBC:LMDF1:1,2016-08-11T20:00:00Z,25.1760,-80.6330,1.5,20.48,1111122 
ENP,ioos.station.NOAA.NDBC:LMDF1:1,2016-08-11T21:00:00Z,25.1760,-80.6330,1.5,18.89,1111122 
ENP,ioos.station.NOAA.NDBC:LMDF1:1,2016-08-11T22:00:00Z,25.1760,-80.6330,1.5,20.07,1111122 
ENP,ioos.station.NOAA.NDBC:LMDF1:1,2016-08-11T23:00:00Z,25.1760,-80.6330,1.5,20.72,1111122 
ENP,ioos.station.NOAA.NDBC:LMDF1:1,2016-08-12T00:00:00Z,25.1760,-80.6330,1.5,19.79,1111122 
ENP,ioos.station.NOAA.NDBC:LMDF1:1,2016-08-12T01:00:00Z,25.1760,-80.6330,1.5,20.74,1111122 
ENP,ioos.station.NOAA.NDBC:LMDF1:1,2016-08-12T04:00:00Z,25.1760,-80.6330,1.5,21.19,1111122 
ENP,ioos.station.NOAA.NDBC:LMDF1:1,2016-08-12T07:00:00Z,25.1760,-80.6330,1.5,16.92,1111122 
ENP,ioos.station.NOAA.NDBC:LMDF1:1,2016-08-12T08:00:00Z,25.1760,-80.6330,1.5,16.23,1111122 
ENP,ioos.station.NOAA.NDBC:LMDF1:1,2016-08-12T09:00:00Z,25.1760,-80.6330,1.5,18.44,1111122 
ENP,ioos.station.NOAA.NDBC:LMDF1:1,2016-08-12T10:00:00Z,25.1760,-80.6330,1.5,19.9,1111122 
ENP,ioos.station.NOAA.NDBC:LMDF1:1,2016-08-12T11:00:00Z,25.1760,-80.6330,1.5,20.34,1111122 
ENP,ioos.station.NOAA.NDBC:LMDF1:1,2016-08-12T12:00:00Z,25.1760,-80.6330,1.5,20.66,1111122 
ENP,ioos.station.NOAA.NDBC:LMDF1:1,2016-08-12T13:00:00Z,25.1760,-80.6330,1.5,21.27,1111122 
ENP,ioos.station.NOAA.NDBC:LMDF1:1,2016-08-12T14:00:00Z,25.1760,-80.6330,1.5,21.94,1111122 
ENP,ioos.station.NOAA.NDBC:LMDF1:1,2016-08-12T15:00:00Z,25.1760,-80.6330,1.5,21.87,1111122 
ENP,ioos.station.NOAA.NDBC:LMDF1:1,2016-08-12T16:00:00Z,25.1760,-80.6330,1.5,22.17,1111122 
ENP,ioos.station.NOAA.NDBC:LMDF1:1,2016-08-12T17:00:00Z,25.1760,-80.6330,1.5,22.54,1111122 
ENP,ioos.station.NOAA.NDBC:LMDF1:1,2016-08-12T18:00:00Z,25.1760,-80.6330,1.5,22.72,1111122 
ENP,ioos.station.NOAA.NDBC:LMDF1:1,2016-08-12T19:00:00Z,25.1760,-80.6330,1.5,22.93,1111122 
ENP,ioos.station.NOAA.NDBC:LMDF1:1,2016-08-12T20:00:00Z,25.1760,-80.6330,1.5,23.02,1111122 
ENP,ioos.station.NOAA.NDBC:LMDF1:1,2016-08-12T21:00:00Z,25.1760,-80.6330,1.5,23.02,1111122 
ENP,ioos.station.NOAA.NDBC:LMDF1:1,2016-08-12T22:00:00Z,25.1760,-80.6330,1.5,20.7,1111122 
ENP,ioos.station.NOAA.NDBC:LMDF1:1,2016-08-12T23:00:00Z,25.1760,-80.6330,1.5,18.69,1111122 
ENP,ioos.station.NOAA.NDBC:LMDF1:1,2016-08-13T00:00:00Z,25.1760,-80.6330,1.5,20.55,1111122 
ENP,ioos.station.NOAA.NDBC:LMDF1:1,2016-08-13T01:00:00Z,25.1760,-80.6330,1.5,21.29,1111122 
ENP,ioos.station.NOAA.NDBC:LMDF1:1,2016-08-13T04:00:00Z,25.1760,-80.6330,1.5,21.46,1111122 
ENP,ioos.station.NOAA.NDBC:LMDF1:1,2016-08-13T07:00:00Z,25.1760,-80.6330,1.5,21.36,1111122 
ENP,ioos.station.NOAA.NDBC:LMDF1:1,2016-08-13T08:00:00Z,25.1760,-80.6330,1.5,19.98,1111122 
ENP,ioos.station.NOAA.NDBC:LMDF1:1,2016-08-13T09:00:00Z,25.1760,-80.6330,1.5,19.11,1111122 
ENP,ioos.station.NOAA.NDBC:LMDF1:1,2016-08-13T10:00:00Z,25.1760,-80.6330,1.5,19.95,1111122 
ENP,ioos.station.NOAA.NDBC:LMDF1:1,2016-08-13T11:00:00Z,25.1760,-80.6330,1.5,20.32,1111122 
ENP,ioos.station.NOAA.NDBC:LMDF1:1,2016-08-13T12:00:00Z,25.1760,-80.6330,1.5,20.3,1111122 
ENP,ioos.station.NOAA.NDBC:LMDF1:1,2016-08-13T13:00:00Z,25.1760,-80.6330,1.5,20.56,1111122 
ENP,ioos.station.NOAA.NDBC:LMDF1:1,2016-08-13T14:00:00Z,25.1760,-80.6330,1.5,21.24,1111122 
ENP,ioos.station.NOAA.NDBC:LMDF1:1,2016-08-13T15:00:00Z,25.1760,-80.6330,1.5,21.92,1111122 
ENP,ioos.station.NOAA.NDBC:LMDF1:1,2016-08-13T16:00:00Z,25.1760,-80.6330,1.5,22.52,1111122 
ENP,ioos.station.NOAA.NDBC:LMDF1:1,2016-08-13T17:00:00Z,25.1760,-80.6330,1.5,22.72,1111122 
ENP,ioos.station.NOAA.NDBC:LMDF1:1,2016-08-13T18:00:00Z,25.1760,-80.6330,1.5,23.04,1111122 
ENP,ioos.station.NOAA.NDBC:LMDF1:1,2016-08-13T19:00:00Z,25.1760,-80.6330,1.5,23.23,1111122 
ENP,ioos.station.NOAA.NDBC:LMDF1:1,2016-08-13T20:00:00Z,25.1760,-80.6330,1.5,19.0,1111122 
ENP,ioos.station.NOAA.NDBC:LMDF1:1,2016-08-13T21:00:00Z,25.1760,-80.6330,1.5,20.02,1111122 
ENP,ioos.station.NOAA.NDBC:LMDF1:1,2016-08-13T22:00:00Z,25.1760,-80.6330,1.5,21.57,1111122 
ENP,ioos.station.NOAA.NDBC:LMDF1:1,2016-08-13T23:00:00Z,25.1760,-80.6330,1.5,18.28,1111122 
ENP,ioos.station.NOAA.NDBC:LMDF1:1,2016-08-14T00:00:00Z,25.1760,-80.6330,1.5,20.06,1111122 
ENP,ioos.station.NOAA.NDBC:LMDF1:1,2016-08-14T01:00:00Z,25.1760,-80.6330,1.5,20.66,1111122 
ENP,ioos.station.NOAA.NDBC:LMDF1:1,2016-08-14T04:00:00Z,25.1760,-80.6330,1.5,21.63,1111122 
ENP,ioos.station.NOAA.NDBC:LMDF1:1,2016-08-14T07:00:00Z,25.1760,-80.6330,1.5,17.52,1111122 
ENP,ioos.station.NOAA.NDBC:LMDF1:1,2016-08-14T08:00:00Z,25.1760,-80.6330,1.5,16.39,1111122 
ENP,ioos.station.NOAA.NDBC:LMDF1:1,2016-08-14T09:00:00Z,25.1760,-80.6330,1.5,18.23,1111122 
ENP,ioos.station.NOAA.NDBC:LMDF1:1,2016-08-14T10:00:00Z,25.1760,-80.6330,1.5,19.11,1111122 
ENP,ioos.station.NOAA.NDBC:LMDF1:1,2016-08-14T12:00:00Z,25.1760,-80.6330,1.5,19.42,1111122 
ENP,ioos.station.NOAA.NDBC:LMDF1:1,2016-08-14T13:00:00Z,25.1760,-80.6330,1.5,19.62,1111122 
ENP,ioos.station.NOAA.NDBC:LMDF1:1,2016-08-14T14:00:00Z,25.1760,-80.6330,1.5,18.64,1111122 
ENP,ioos.station.NOAA.NDBC:LMDF1:1,2016-08-14T15:00:00Z,25.1760,-80.6330,1.5,19.18,1111122 
ENP,ioos.station.NOAA.NDBC:LMDF1:1,2016-08-14T16:00:00Z,25.1760,-80.6330,1.5,19.52,1111122 
ENP,ioos.station.NOAA.NDBC:LMDF1:1,2016-08-14T17:00:00Z,25.1760,-80.6330,1.5,19.73,1111122 
ENP,ioos.station.NOAA.NDBC:LMDF1:1,2016-08-14T18:00:00Z,25.1760,-80.6330,1.5,20.04,1111122 
ENP,ioos.station.NOAA.NDBC:LMDF1:1,2016-08-14T19:00:00Z,25.1760,-80.6330,1.5,20.45,1111122 
ENP,ioos.station.NOAA.NDBC:LMDF1:1,2016-08-14T20:00:00Z,25.1760,-80.6330,1.5,20.95,1111122 
ENP,ioos.station.NOAA.NDBC:LMDF1:1,2016-08-14T21:00:00Z,25.1760,-80.6330,1.5,20.28,1111122 
ENP,ioos.station.NOAA.NDBC:LMDF1:1,2016-08-14T22:00:00Z,25.1760,-80.6330,1.5,19.27,1111122 
ENP,ioos.station.NOAA.NDBC:LMDF1:1,2016-08-14T23:00:00Z,25.1760,-80.6330,1.5,18.87,1111122 
ENP,ioos.station.NOAA.NDBC:LMDF1:1,2016-08-15T00:00:00Z,25.1760,-80.6330,1.5,17.52,1111122 
ENP,ioos.station.NOAA.NDBC:LMDF1:1,2016-08-15T01:00:00Z,25.1760,-80.6330,1.5,18.98,1111122 
ENP,ioos.station.NOAA.NDBC:LMDF1:1,2016-08-15T04:00:00Z,25.1760,-80.6330,1.5,20.21,1111122 
ENP,ioos.station.NOAA.NDBC:LMDF1:1,2016-08-15T05:00:00Z,25.1760,-80.6330,1.5,20.32,1111122 
ENP,ioos.station.NOAA.NDBC:LMDF1:1,2016-08-15T07:00:00Z,25.1760,-80.6330,1.5,20.33,1111122 
ENP,ioos.station.NOAA.NDBC:LMDF1:1,2016-08-15T08:00:00Z,25.1760,-80.6330,1.5,20.46,1111122 
ENP,ioos.station.NOAA.NDBC:LMDF1:1,2016-08-15T09:00:00Z,25.1760,-80.6330,1.5,20.35,1111122 
ENP,ioos.station.NOAA.NDBC:LMDF1:1,2016-08-15T11:00:00Z,25.1760,-80.6330,1.5,19.13,1111122 
ENP,ioos.station.NOAA.NDBC:LMDF1:1,2016-08-15T12:00:00Z,25.1760,-80.6330,1.5,18.02,1111122 
ENP,ioos.station.NOAA.NDBC:LMDF1:1,2016-08-15T13:00:00Z,25.1760,-80.6330,1.5,18.5,1111122 
ENP,ioos.station.NOAA.NDBC:LMDF1:1,2016-08-15T14:00:00Z,25.1760,-80.6330,1.5,19.01,1111122 
ENP,ioos.station.NOAA.NDBC:LMDF1:1,2016-08-15T15:00:00Z,25.1760,-80.6330,1.5,19.15,1111122 
ENP,ioos.station.NOAA.NDBC:LMDF1:1,2016-08-15T16:00:00Z,25.1760,-80.6330,1.5,19.15,1111122 
ENP,ioos.station.NOAA.NDBC:LMDF1:1,2016-08-15T17:00:00Z,25.1760,-80.6330,1.5,19.6,1111122 
ENP,ioos.station.NOAA.NDBC:LMDF1:1,2016-08-15T18:00:00Z,25.1760,-80.6330,1.5,18.87,1111122 
ENP,ioos.station.NOAA.NDBC:LMDF1:1,2016-08-15T19:00:00Z,25.1760,-80.6330,1.5,19.06,1111122 
ENP,ioos.station.NOAA.NDBC:LMDF1:1,2016-08-15T20:00:00Z,25.1760,-80.6330,1.5,18.3,1111122 
ENP,ioos.station.NOAA.NDBC:LMDF1:1,2016-08-15T21:00:00Z,25.1760,-80.6330,1.5,17.67,1111122 
ENP,ioos.station.NOAA.NDBC:LMDF1:1,2016-08-15T22:00:00Z,25.1760,-80.6330,1.5,18.29,1111122 
ENP,ioos.station.NOAA.NDBC:LMDF1:1,2016-08-16T00:00:00Z,25.1760,-80.6330,1.5,19.99,1111122 
ENP,ioos.station.NOAA.NDBC:LMDF1:1,2016-08-16T01:00:00Z,25.1760,-80.6330,1.5,20.34,1111122 
ENP,ioos.station.NOAA.NDBC:LMDF1:1,2016-08-16T04:00:00Z,25.1760,-80.6330,1.5,18.42,1111122 
ENP,ioos.station.NOAA.NDBC:LMDF1:1,2016-08-16T07:00:00Z,25.1760,-80.6330,1.5,19.94,1111122 
ENP,ioos.station.NOAA.NDBC:LMDF1:1,2016-08-16T08:00:00Z,25.1760,-80.6330,1.5,18.91,1111122 
ENP,ioos.station.NOAA.NDBC:LMDF1:1,2016-08-16T09:00:00Z,25.1760,-80.6330,1.5,19.3,1111122 
ENP,ioos.station.NOAA.NDBC:LMDF1:1,2016-08-16T11:00:00Z,25.1760,-80.6330,1.5,21.4,1111122 
ENP,ioos.station.NOAA.NDBC:LMDF1:1,2016-08-16T12:00:00Z,25.1760,-80.6330,1.5,21.79,1111122 
ENP,ioos.station.NOAA.NDBC:LMDF1:1,2016-08-16T13:00:00Z,25.1760,-80.6330,1.5,22.09,1111122 
ENP,ioos.station.NOAA.NDBC:LMDF1:1,2016-08-16T14:00:00Z,25.1760,-80.6330,1.5,20.24,1111122 
ENP,ioos.station.NOAA.NDBC:LMDF1:1,2016-08-16T15:00:00Z,25.1760,-80.6330,1.5,19.78,1111122 
ENP,ioos.station.NOAA.NDBC:LMDF1:1,2016-08-16T16:00:00Z,25.1760,-80.6330,1.5,19.8,1111122 
ENP,ioos.station.NOAA.NDBC:LMDF1:1,2016-08-16T17:00:00Z,25.1760,-80.6330,1.5,19.8,1111122 
ENP,ioos.station.NOAA.NDBC:LMDF1:1,2016-08-16T18:00:00Z,25.1760,-80.6330,1.5,20.12,1111122 
ENP,ioos.station.NOAA.NDBC:LMDF1:1,2016-08-16T19:00:00Z,25.1760,-80.6330,1.5,20.24,1111122 
ENP,ioos.station.NOAA.NDBC:LMDF1:1,2016-08-16T22:00:00Z,25.1760,-80.6330,1.5,20.32,1111122 
ENP,ioos.station.NOAA.NDBC:LMDF1:1,2016-08-16T23:00:00Z,25.1760,-80.6330,1.5,19.17,1111122 
ENP,ioos.station.NOAA.NDBC:LMDF1:1,2016-08-17T00:00:00Z,25.1760,-80.6330,1.5,19.75,1111122 
ENP,ioos.station.NOAA.NDBC:LMDF1:1,2016-08-17T01:00:00Z,25.1760,-80.6330,1.5,20.3,1111122 
ENP,ioos.station.NOAA.NDBC:LMDF1:1,2016-08-17T03:00:00Z,25.1760,-80.6330,1.5,21.43,1111122 
ENP,ioos.station.NOAA.NDBC:LMDF1:1,2016-08-17T04:00:00Z,25.1760,-80.6330,1.5,20.76,1111122 